Flag for Germany Weather past 2 weeks in Schönebeck, Saxony-Anhalt, Germany

Now
40 °F

Overcast.


Feels Like: 37 °F
Forecast: 27 / 35 °F
Wind: 5 mph from West

Location: Magdeburg

Current Time: Dec 25, 2014 at 3:21:16 AM

Latest Report: Dec 25, 2014 at 3:00 AM


Visibility: 25 mi

Pressure: 30.01 "Hg

Humidity: 79%

Dew point: 34 °F

Location of SchönebeckLocation

Historic Weather in Schönebeck — Graph

°F

Schönebeck temperature yesterday

Maximum temperature yesterday: 52 °F (at 12:00 AM)
Minimum temperature yesterday: 41 °F (at 11:00 PM)
Average temperature yesterday: 49 °F

Past Weeks' High & Low Weather Summary

 TemperatureHumidityPressure
High56 °F (Dec 18, 11:00 PM)97% (Dec 17, 7:00 PM)30.30 "Hg (Dec 17, 7:00 PM)
Low28 °F (Dec 15, 3:00 AM)64% (Dec 20, 11:00 AM)29.38 "Hg (Dec 12, 5:00 PM)
Average43 °F82%29.87 "Hg
* Reported Dec 10 2:00 AM — Dec 25 2:00 AM, Schönebeck, Weather by CustomWeather, © 2014

Note: Actual official high and low records may vary slightly from our data, if they occured in-between our weather recording intervals... More about our weather records

Advertising

Schönebeck weather history for previous 24 hours

 ConditionsComfort  
Time TempWeatherWind HumidityBarometerVisibility
2:00 AM
Dec 25
40 °FOvercast.5 mph79%30.01 "Hg31 mi
1:00 AM40 °FClear.5 mph79%30.00 "Hg28 mi
12:00 AM42 °FDrizzle. Overcast.5 mph83%29.99 "Hg12 mi
11:00 PM
Dec 24
41 °FPassing clouds.3 mph85%29.97 "Hg28 mi
9:00 PM44 °FOvercast.5 mph84%29.93 "Hg40 mi
8:00 PM43 °FOvercast.3 mph83%29.92 "Hg43 mi
7:00 PM45 °FLight freezing rain. Overcast.5 mph91%29.90 "Hg5 mi
6:00 PM46 °FDrizzle. Overcast.7 mph88%29.88 "Hg14 mi
5:00 PM49 °FOvercast.6 mph78%29.86 "Hg28 mi
3:00 PM50 °FOvercast.7 mph73%29.85 "Hg37 mi
2:00 PM50 °FOvercast.8 mph71%29.85 "Hg37 mi
1:00 PM50 °FOvercast.8 mph72%29.84 "Hg37 mi
12:00 PM49 °FOvercast.6 mph71%29.85 "Hg37 mi
11:00 AM48 °FOvercast.6 mph74%29.86 "Hg37 mi
9:00 AM48 °FOvercast.5 mph70%29.86 "Hg37 mi
8:00 AM49 °FOvercast.6 mph68%29.86 "Hg37 mi
7:00 AM49 °FOvercast.6 mph65%29.87 "Hg37 mi
6:00 AM50 °FOvercast.7 mph69%29.88 "Hg37 mi
5:00 AM51 °FOvercast.7 mph71%29.89 "Hg43 mi
4:00 AM51 °FOvercast.7 mph73%29.89 "Hg43 mi
3:00 AM52 °FOvercast.6 mph71%29.92 "Hg43 mi
Weather by CustomWeather, © 2014

See weather overviewHow to use our weather pages